Location: Camps Bay
(33.9517°S, 18.3844°E)
Time: 23:05:20
(UTC+00:00)

UNK - Pass Details

Date: 18 January 2020
Orbit: 666 x 687 km, 98.1° (Epoch: 18 February)

Event Time Altitude Azimuth Distance (km) Brightness Sun altitude
Rises 01:46:20 0° 176° (S) 3,081 7.9 -22.1°
Reaches altitude 10° 01:48:40 10° 182° (S) 2,160 6.9 -21.7°
Maximum altitude 01:53:09 44° 253° (WSW) 965 4.3 -21.1°
Enters shadow 01:53:43 41° 274° (W) 997 4.2 -21.0°
